This demonstration page uses our WeatherBlox Daily Observations layout. Learn more.

Left ArrowRight Arrow

31.84235, -102.49876

Hourly Observations for May 10, 2022

Temp ( °F °C ) Dew Point ( °F °C ) Humidity (%) Winds ( mph kmh ) Pressure ( in mb ) Visibility ( mi km ) Precip ( " mm )
12:53 am 00:53 Clear 82 27.8 60 15.6 47 47 S 12 19 29.74 1007 9 14 0.00 0.00
1:53 am 01:53 Clear 81 27.2 61 16.1 51 51 S 13 20 29.74 1007 9 14 0.00 0.00
2:53 am 02:53 Clear 80 26.7 63 17.2 56 56 SSW 9 15 29.74 1007 8 13 0.00 0.00
3:53 am 03:53 Clear 77 25 63 17.2 62 62 W 5 7 29.74 1007 8 13 0.00 0.00
4:53 am 04:53 Clear 75 23.9 63 17.2 66 66 SSE 5 7 29.75 1008 7 11 0.00 0.00
5:53 am 05:53 Clear 74 23.3 63 17.2 69 69 SSE 8 13 29.77 1008 7 11 0.00 0.00
6:18 am 06:18 Mostly Cloudy 76 24.4 66 18.9 72 72 SSE 10 17 29.77 1008 7 11 0.00 0.00
6:53 am 06:53 Cloudy with Haze 78 25.6 69 20.6 74 74 S 10 17 29.79 1009 6 10 0.00 0.00
7:30 am 07:30 Hazy 78 25.6 70 21.1 76 76 S 13 20 29.79 1009 5 8 0.00 0.00
7:53 am 07:53 Hazy 79 26.1 70 21.1 74 74 SSE 14 22 29.81 1010 5 8 0.00 0.00
8:53 am 08:53 Hazy 80 26.7 70 21.1 71 71 SSE 15 24 29.84 1011 5 8 0.00 0.00
9:53 am 09:53 Hazy 82 27.8 70 21.1 67 67 S 17 28 29.86 1011 6 10 0.00 0.00
10:33 am 10:33 Mostly Cloudy with Haze 84 28.9 70 21.1 63 63 S 16 26 29.81 1009 6 10 0.00 0.00
10:43 am 10:43 Hazy 84 28.9 69 20.6 61 61 S 16 26 29.81 1009 6 10 0.00 0.00
10:53 am 10:53 Hazy 85 29.4 69 20.6 59 59 SSE 14 22 29.87 1011 6 10 0.00 0.00
11:53 am 11:53 Mostly Cloudy with Haze 85 29.4 69 20.6 59 59 S 14 22 29.86 1011 6 10 0.00 0.00
12:53 pm 12:53 Mostly Cloudy 88 31.1 69 20.6 54 54 S 15 24 29.85 1011 7 11 0.00 0.00
1:53 pm 13:53 Mostly Sunny 87 30.6 68 20 53 53 S 14 22 29.84 1011 7 11 0.00 0.00
2:53 pm 14:53 Sunny 88 31.1 68 20 52 52 S 15 24 29.82 1010 7 11 0.00 0.00
3:53 pm 15:53 Sunny 91 32.8 68 20 47 47 SSE 17 28 29.80 1009 8 13 0.00 0.00
4:53 pm 16:53 Sunny 92 33.3 67 19.4 44 44 SSE 21 33 29.76 1008 9 14 0.00 0.00
5:53 pm 17:53 Sunny 88 31.1 67 19.4 50 50 SSE 23 37 29.80 1009 8 13 0.00 0.00
6:53 pm 18:53 Mostly Cloudy with Haze 82 27.8 68 20 63 63 S 32 52 29.81 1010 4 6 0.00 0.00
7:53 pm 19:53 Sunny 79 26.1 52 11.1 39 39 SSE 24 39 29.76 1008 7 11 0.00 0.00
8:06 pm 20:06 Hazy 80 26.7 49 9.4 34 34 S 26 43 29.70 1006 3 4 0.00 0.00
8:25 pm 20:25 Mostly Cloudy with Haze 81 27.2 48 8.9 32 32 WNW 14 22 29.71 1006 2 3 0.00 0.00
8:39 pm 20:39 Mostly Cloudy with Haze 82 27.8 48 8.9 31 31 WSW 8 13 29.70 1006 2 2 0.00 0.00
8:51 pm 20:51 Mostly Cloudy with Haze 81 27 48 9 32 32 Calm 29.72 1006 2 3 0.00 0.00
8:53 pm 20:53 Mostly Cloudy with Haze 81 27.2 48 8.9 32 32 Calm 29.76 1008 2 3 0.00 0.00
9:14 pm 21:14 Mostly Cloudy with Haze 81 27.2 49 9.4 33 33 W 7 11 29.73 1007 4 6 0.00 0.00
9:35 pm 21:35 Partly Cloudy 80 26.7 51 10.6 37 37 WNW 7 11 29.74 1007 7 11 0.00 0.00
9:53 pm 21:53 Clear 79 26.1 52 11.1 39 39 W 7 11 29.78 1008 8 13 0.00 0.00
10:23 pm 22:23 Clear 83 28.3 48 8.9 30 30 SSE 26 43 29.75 1007 10 16 0.00 0.00
10:53 pm 22:53 Clear 80 26.7 58 14.4 47 47 SSE 20 31 29.82 1010 10 16 0.00 0.00
11:53 pm 23:53 Clear 79 26.1 61 16.1 54 54 SSE 17 28 29.84 1011 9 14 0.00 0.00

Powered by AerisWeather